{"data":{"norad_id":56547,"epoch":"2026-09-20T05:13:53.052096Z","epoch_age_seconds":139139,"freshness":"FRESH","line1":"1 56547U 23065AW  26263.21797514  .00000429  00000+0  25118-4 0  9993","line2":"2 56547  43.0026 204.9134 0000554 252.6132 107.4659 15.27573638186220","mean_motion":15.27573638,"eccentricity":5.54e-5,"inclination_deg":43.0026,"raan_deg":204.9134,"arg_perigee_deg":252.6132,"mean_anomaly_deg":107.4659,"bstar":2.5118e-5,"rev_number":18622,"period_min":94.267141313419,"perigee_km":482.68803545739,"apogee_km":483.44825698759,"semimajor_km":6861.2051462225,"source":"CELESTRAK","updated_at":"2026-09-21T09:00:33.477934Z"}}